Location: Les Salelles
(44.4192°N, 4.1044°E)
Time: 15:58:27
(UTC+00:00)

Cosmos 1943 - Pass Details

Date: 20 January 2021
Orbit: 834 x 850 km, 71.0° (Epoch: 26 February)

Event Time Altitude Azimuth Distance (km) Brightness Sun altitude
Rises 17:35:48 0° 330° (NNW) 3,417 6.5 -10.6°
Reaches altitude 10° 17:38:18 10° 327° (NNW) 2,475 5.8 -11.0°
Maximum altitude 17:43:50 56° 251° (WSW) 1,002 4.0 -11.9°
Drops below altitude 10° 17:49:18 10° 174° (S) 2,448 5.7 -12.9°
Sets 17:51:46 0° 170° (S) 3,376 6.4 -13.3°
